| time (UTC) | temp C | wind direction | speed KPH | gust KPH | rain 1hr cm | rain 24hr cm | rain mn cm | humidity % | barometer mb |
| 20260504050505 | 3 | 133 | 0.0 | 0.0 | 0.00 | 0.00 | 0.00 | 76 | 1015.8 |
| 20260504050018 | 4 | 133 | 0.0 | 0.0 | 0.00 | 0.00 | 0.00 | 75 | 1015.8 |
| 20260504045511 | 4 | 182 | 0.0 | 0.0 | 0.00 | 0.00 | 0.00 | 74 | 1015.8 |
| 20260504045003 | 4 | 107 | 0.0 | 0.0 | 0.00 | 0.00 | 0.00 | 75 | 1015.7 |
| 20260504044507 | 4 | 107 | 0.0 | 0.0 | 0.00 | 0.00 | 0.00 | 74 | 1015.7 |
| 20260504044003 | 4 | 107 | 0.0 | 0.0 | 0.00 | 0.00 | 0.00 | 74 | 1015.6 |
| 20260504043505 | 4 | 107 | 0.0 | 0.0 | 0.00 | 0.00 | 0.00 | 73 | 1015.6 |
| 20260504043008 | 4 | 107 | 0.0 | 0.0 | 0.00 | 0.00 | 0.00 | 74 | 1015.5 |
| 20260504042504 | 4 | 107 | 0.0 | 0.0 | 0.00 | 0.00 | 0.00 | 71 | 1015.5 |
| 20260504042008 | 4 | 107 | 0.0 | 0.0 | 0.00 | 0.00 | 0.00 | 70 | 1015.5 |
| 20260504041509 | 5 | 107 | 0.0 | 0.0 | 0.00 | 0.00 | 0.00 | 70 | 1015.5 |
| 20260504041003 | 5 | 107 | 0.0 | 0.0 | 0.00 | 0.00 | 0.00 | 70 | 1015.5 |
| 20260504040507 | 5 | 107 | 0.0 | 3.2 | 0.00 | 0.00 | 0.00 | 69 | 1015.4 |
| 20260504040024 | 5 | 107 | 0.0 | 3.2 | 0.00 | 0.00 | 0.00 | 70 | 1015.4 |
| 20260504035505 | 5 | 107 | 0.0 | 3.2 | 0.00 | 0.00 | 0.00 | 72 | 1015.3 |
| 20260504035003 | 5 | 121 | 0.0 | 1.6 | 0.00 | 0.00 | 0.00 | 71 | 1015.4 |
| 20260504034508 | 5 | 196 | 0.0 | 0.0 | 0.00 | 0.00 | 0.00 | 66 | 1015.5 |
| 20260504034007 | 5 | 196 | 0.0 | 0.0 | 0.00 | 0.00 | 0.00 | 66 | 1015.6 |
| 20260504033504 | 5 | 196 | 0.0 | 0.0 | 0.00 | 0.00 | 0.00 | 66 | 1015.7 |
| 20260504033016 | 5 | 196 | 0.0 | 0.0 | 0.00 | 0.00 | 0.00 | 66 | 1015.6 |
| 20260504032508 | 6 | 196 | 0.0 | 0.0 | 0.00 | 0.00 | 0.00 | 64 | 1015.6 |
| 20260504032006 | 6 | 196 | 0.0 | 0.0 | 0.00 | 0.00 | 0.00 | 63 | 1015.5 |
| 20260504031518 | 6 | 196 | 0.0 | 0.0 | 0.00 | 0.00 | 0.00 | 62 | 1015.5 |
| 20260504031009 | 6 | 196 | 0.0 | 0.0 | 0.00 | 0.00 | 0.00 | 62 | 1015.4 |
| 20260504030509 | 6 | 196 | 0.0 | 0.0 | 0.00 | 0.00 | 0.00 | 62 | 1015.4 |
| 20260504030008 | 6 | 196 | 0.0 | 0.0 | 0.00 | 0.00 | 0.00 | 62 | 1015.4 |
| 20260504025505 | 6 | 196 | 0.0 | 0.0 | 0.00 | 0.00 | 0.00 | 61 | 1015.4 |
| 20260504025004 | 6 | 196 | 0.0 | 0.0 | 0.00 | 0.00 | 0.00 | 61 | 1015.4 |
| 20260504024503 | 7 | 196 | 0.0 | 0.0 | 0.00 | 0.00 | 0.00 | 62 | 1015.4 |
| 20260504024003 | 7 | 196 | 0.0 | 0.0 | 0.00 | 0.00 | 0.00 | 63 | 1015.3 |
| 20260504023506 | 7 | 196 | 0.0 | 1.6 | 0.00 | 0.00 | 0.00 | 62 | 1015.3 |
| 20260504023018 | 7 | 196 | 0.0 | 1.6 | 0.00 | 0.00 | 0.00 | 58 | 1015.4 |
| 20260504022506 | 7 | 196 | 0.0 | 0.0 | 0.00 | 0.00 | 0.00 | 57 | 1015.4 |
| 20260504022007 | 7 | 196 | 0.0 | 0.0 | 0.00 | 0.00 | 0.00 | 58 | 1015.2 |
| 20260504021522 | 8 | 196 | 0.0 | 3.2 | 0.00 | 0.00 | 0.00 | 58 | 1015.3 |
| 20260504021007 | 8 | 196 | 0.0 | 3.2 | 0.00 | 0.00 | 0.00 | 57 | 1015.2 |
| 20260504020503 | 8 | 196 | 0.0 | 1.6 | 0.00 | 0.00 | 0.00 | 54 | 1015.2 |
| 20260504020027 | 8 | 196 | 0.0 | 1.6 | 0.00 | 0.00 | 0.00 | 54 | 1015.2 |
| 20260504015503 | 8 | 196 | 0.0 | 1.6 | 0.00 | 0.00 | 0.00 | 53 | 1015.2 |
| 20260504015005 | 8 | 196 | 0.0 | 0.0 | 0.00 | 0.00 | 0.00 | 54 | 1015.2 |
| 20260504014512 | 9 | 196 | 0.0 | 0.0 | 0.00 | 0.00 | 0.00 | 54 | 1015.1 |
| 20260504014021 | 9 | 196 | 0.0 | 3.2 | 0.00 | 0.00 | 0.00 | 50 | 1015.2 |
| 20260504013506 | 9 | 196 | 0.0 | 3.2 | 0.00 | 0.00 | 0.00 | 50 | 1015.2 |
| 20260504013017 | 10 | 196 | 0.0 | 3.2 | 0.00 | 0.00 | 0.00 | 50 | 1015.1 |
| 20260504012507 | 10 | 196 | 0.0 | 1.6 | 0.00 | 0.00 | 0.00 | 49 | 1015.1 |
| 20260504012007 | 10 | 196 | 0.0 | 0.0 | 0.00 | 0.00 | 0.00 | 48 | 1014.9 |
| 20260504011508 | 10 | 196 | 0.0 | 1.6 | 0.00 | 0.00 | 0.00 | 46 | 1014.9 |
| 20260504011006 | 10 | 196 | 0.0 | 3.2 | 0.00 | 0.00 | 0.00 | 46 | 1014.8 |
| 20260504010507 | 11 | 196 | 0.0 | 3.2 | 0.00 | 0.00 | 0.00 | 47 | 1014.8 |
| 20260504010024 | 11 | 196 | 0.0 | 3.2 | 0.00 | 0.00 | 0.00 | 46 | 1014.9 |
| 20260504005504 | 11 | 202 | 1.6 | 3.2 | 0.00 | 0.00 | 0.00 | 42 | 1014.8 |
| 20260504005010 | 11 | 273 | 0.0 | 3.2 | 0.00 | 0.00 | 0.00 | 41 | 1014.8 |
| 20260504004516 | 11 | 273 | 0.0 | 0.0 | 0.00 | 0.00 | 0.00 | 42 | 1014.7 |
| 20260504004008 | 11 | 273 | 0.0 | 0.0 | 0.00 | 0.00 | 0.00 | 44 | 1014.6 |
| 20260504003508 | 12 | 273 | 0.0 | 3.2 | 0.00 | 0.00 | 0.00 | 44 | 1014.6 |
| 20260504003030 | 12 | 273 | 0.0 | 3.2 | 0.00 | 0.00 | 0.00 | 39 | 1014.6 |
| 20260504002509 | 12 | 273 | 0.0 | 3.2 | 0.00 | 0.00 | 0.00 | 39 | 1014.5 |
| 20260504002004 | 12 | 273 | 0.0 | 3.2 | 0.00 | 0.00 | 0.00 | 38 | 1014.5 |
| 20260504001521 | 12 | 273 | 0.0 | 3.2 | 0.00 | 0.00 | 0.00 | 38 | 1014.4 |
| 20260504001008 | 12 | 273 | 0.0 | 4.8 | 0.00 | 0.00 | 0.00 | 38 | 1014.4 |
| 20260504000506 | 12 | 273 | 0.0 | 4.8 | 0.00 | 0.00 | 0.00 | 38 | 1014.4 |
| 20260504000031 | 12 | 275 | 1.6 | 6.4 | 0.00 | 0.00 | 0.00 | 37 | 1014.4 |
| 20260503235509 | 12 | 269 | 1.6 | 6.4 | 0.00 | 0.00 | 0.00 | 37 | 1014.3 |
| 20260503235008 | 13 | 225 | 1.6 | 6.4 | 0.00 | 0.00 | 0.00 | 37 | 1014.3 |
| 20260503234511 | 13 | 265 | 0.0 | 6.4 | 0.00 | 0.00 | 0.00 | 37 | 1014.3 |
| 20260503234007 | 13 | 298 | 0.0 | 12.9 | 0.00 | 0.00 | 0.00 | 37 | 1014.3 |
| 20260503233510 | 13 | 302 | 3.2 | 16.1 | 0.00 | 0.00 | 0.00 | 36 | 1014.2 |
| 20260503233022 | 13 | 338 | 4.8 | 16.1 | 0.00 | 0.00 | 0.00 | 36 | 1014.1 |
| 20260503232507 | 13 | 352 | 3.2 | 14.5 | 0.00 | 0.00 | 0.00 | 36 | 1014.1 |
| 20260503232007 | 13 | 308 | 6.4 | 14.5 | 0.00 | 0.00 | 0.00 | 35 | 1014.0 |
| 20260503231524 | 13 | 258 | 4.8 | 12.9 | 0.00 | 0.00 | 0.00 | 36 | 1013.9 |
| 20260503231007 | 13 | 304 | 6.4 | 12.9 | 0.00 | 0.00 | 0.00 | 36 | 1013.9 |
| 20260503230507 | 13 | 322 | 4.8 | 14.5 | 0.00 | 0.00 | 0.00 | 35 | 1013.9 |
| 20260503230015 | 14 | 234 | 6.4 | 12.9 | 0.00 | 0.00 | 0.00 | 36 | 1014.0 |
| 20260503225509 | 14 | 315 | 3.2 | 14.5 | 0.00 | 0.00 | 0.00 | 36 | 1014.0 |
| 20260503225009 | 14 | 281 | 6.4 | 14.5 | 0.00 | 0.00 | 0.00 | 34 | 1014.0 |
| 20260503224521 | 14 | 342 | 3.2 | 16.1 | 0.00 | 0.00 | 0.00 | 34 | 1014.0 |
| 20260503224009 | 14 | 237 | 6.4 | 16.1 | 0.00 | 0.00 | 0.00 | 34 | 1014.0 |
| 20260503223507 | 15 | 259 | 6.4 | 19.3 | 0.00 | 0.00 | 0.00 | 36 | 1014.1 |
| 20260503223018 | 15 | 258 | 8.0 | 19.3 | 0.00 | 0.00 | 0.00 | 35 | 1014.0 |
| 20260503222509 | 15 | 297 | 6.4 | 20.9 | 0.00 | 0.00 | 0.00 | 35 | 1014.0 |
| 20260503222010 | 15 | 249 | 6.4 | 20.9 | 0.00 | 0.00 | 0.00 | 35 | 1014.0 |
| 20260503221514 | 15 | 316 | 11.3 | 19.3 | 0.00 | 0.00 | 0.00 | 35 | 1014.0 |
| 20260503221012 | 15 | 317 | 8.0 | 19.3 | 0.00 | 0.00 | 0.00 | 35 | 1013.9 |
| 20260503220508 | 15 | 302 | 9.7 | 19.3 | 0.00 | 0.00 | 0.00 | 34 | 1014.0 |
| 20260503220018 | 15 | 313 | 11.3 | 20.9 | 0.00 | 0.00 | 0.00 | 35 | 1014.1 |
| 20260503215505 | 15 | 342 | 12.9 | 33.8 | 0.00 | 0.00 | 0.00 | 35 | 1014.2 |
| 20260503215007 | 15 | 316 | 12.9 | 33.8 | 0.00 | 0.00 | 0.00 | 33 | 1014.2 |
| 20260503214524 | 15 | 18 | 6.4 | 17.7 | 0.00 | 0.00 | 0.00 | 35 | 1014.0 |
| 20260503214012 | 15 | 360 | 6.4 | 16.1 | 0.00 | 0.00 | 0.00 | 34 | 1014.0 |
| 20260503213509 | 15 | 325 | 6.4 | 17.7 | 0.00 | 0.00 | 0.00 | 35 | 1014.0 |
| 20260503213023 | 15 | 293 | 8.0 | 22.5 | 0.00 | 0.00 | 0.00 | 35 | 1014.0 |
| 20260503212508 | 15 | 260 | 8.0 | 22.5 | 0.00 | 0.00 | 0.00 | 35 | 1014.0 |
| 20260503212007 | 15 | 290 | 8.0 | 17.7 | 0.00 | 0.00 | 0.00 | 36 | 1014.0 |
| 20260503211522 | 14 | 251 | 9.7 | 27.4 | 0.00 | 0.00 | 0.00 | 34 | 1013.9 |
| 20260503211011 | 15 | 277 | 16.1 | 27.4 | 0.00 | 0.00 | 0.00 | 31 | 1014.0 |
| 20260503210511 | 15 | 294 | 16.1 | 27.4 | 0.00 | 0.00 | 0.00 | 33 | 1014.0 |
| 20260503210018 | 15 | 265 | 9.7 | 25.7 | 0.00 | 0.00 | 0.00 | 35 | 1013.9 |
| 20260503205507 | 15 | 317 | 9.7 | 25.7 | 0.00 | 0.00 | 0.00 | 33 | 1013.9 |
| 20260503205007 | 14 | 337 | 8.0 | 29.0 | 0.00 | 0.00 | 0.00 | 33 | 1013.9 |
| 20260503204503 | 14 | 301 | 12.9 | 29.0 | 0.00 | 0.00 | 0.00 | 34 | 1013.9 |
| 20260503204005 | 14 | 307 | 11.3 | 29.0 | 0.00 | 0.00 | 0.00 | 33 | 1014.0 |
| 20260503203504 | 15 | 319 | 14.5 | 29.0 | 0.00 | 0.00 | 0.00 | 35 | 1013.9 |
| 20260503203018 | 15 | 296 | 12.9 | 22.5 | 0.00 | 0.00 | 0.00 | 33 | 1013.9 |
| 20260503202507 | 15 | 266 | 6.4 | 25.7 | 0.00 | 0.00 | 0.00 | 35 | 1014.0 |
| 20260503202004 | 14 | 328 | 12.9 | 25.7 | 0.00 | 0.00 | 0.00 | 34 | 1014.0 |
| 20260503201511 | 14 | 352 | 12.9 | 27.4 | 0.00 | 0.00 | 0.00 | 33 | 1014.1 |
| 20260503201007 | 14 | 291 | 9.7 | 27.4 | 0.00 | 0.00 | 0.00 | 35 | 1014.2 |
| 20260503200509 | 14 | 279 | 9.7 | 20.9 | 0.00 | 0.00 | 0.00 | 33 | 1014.3 |
| 20260503200005 | 14 | 324 | 11.3 | 30.6 | 0.00 | 0.00 | 0.00 | 33 | 1014.3 |
| 20260503195503 | 15 | 320 | 17.7 | 30.6 | 0.00 | 0.00 | 0.00 | 33 | 1014.4 |
| 20260503195005 | 15 | 309 | 12.9 | 24.1 | 0.00 | 0.00 | 0.00 | 35 | 1014.5 |
| 20260503194503 | 14 | 215 | 4.8 | 25.7 | 0.00 | 0.00 | 0.00 | 42 | 1014.5 |
| 20260503194005 | 14 | 322 | 4.8 | 27.4 | 0.00 | 0.00 | 0.00 | 38 | 1014.7 |
| 20260503193506 | 13 | 284 | 11.3 | 27.4 | 0.00 | 0.00 | 0.00 | 36 | 1014.7 |
| 20260503193012 | 13 | 286 | 12.9 | 25.7 | 0.00 | 0.00 | 0.00 | 33 | 1014.8 |
| 20260503192503 | 13 | 293 | 3.2 | 24.1 | 0.00 | 0.00 | 0.00 | 36 | 1014.8 |
| 20260503192006 | 13 | 319 | 12.9 | 24.1 | 0.00 | 0.00 | 0.00 | 39 | 1014.9 |
| 20260503191519 | 13 | 287 | 8.0 | 24.1 | 0.00 | 0.00 | 0.00 | 40 | 1014.9 |
| 20260503191004 | 13 | 217 | 9.7 | 24.1 | 0.00 | 0.00 | 0.00 | 39 | 1015.0 |
| 20260503190507 | 13 | 278 | 9.7 | 32.2 | 0.00 | 0.00 | 0.00 | 36 | 1015.0 |
| 20260503190018 | 13 | 302 | 11.3 | 32.2 | 0.00 | 0.00 | 0.00 | 39 | 1015.1 |
| 20260503185502 | 13 | 303 | 11.3 | 22.5 | 0.00 | 0.00 | 0.00 | 37 | 1015.1 |
| 20260503185003 | 13 | 234 | 8.0 | 32.2 | 0.00 | 0.00 | 0.00 | 38 | 1015.2 |
| 20260503184509 | 13 | 231 | 12.9 | 32.2 | 0.00 | 0.00 | 0.00 | 38 | 1015.1 |
| 20260503184007 | 12 | 293 | 16.1 | 30.6 | 0.00 | 0.00 | 0.00 | 47 | 1015.2 |
| 20260503183504 | 12 | 288 | 6.4 | 22.5 | 0.00 | 0.00 | 0.00 | 46 | 1015.2 |
| 20260503183009 | 12 | 302 | 11.3 | 22.5 | 0.00 | 0.00 | 0.00 | 39 | 1015.3 |
| 20260503182508 | 12 | 307 | 8.0 | 38.6 | 0.00 | 0.00 | 0.00 | 38 | 1015.3 |
| 20260503182006 | 12 | 321 | 16.1 | 38.6 | 0.00 | 0.00 | 0.00 | 38 | 1015.4 |
| 20260503181507 | 12 | 304 | 19.3 | 38.6 | 0.00 | 0.00 | 0.00 | 40 | 1015.4 |
| 20260503181007 | 12 | 217 | 9.7 | 22.5 | 0.00 | 0.00 | 0.00 | 41 | 1015.6 |
| 20260503180508 | 12 | 315 | 14.5 | 24.1 | 0.00 | 0.00 | 0.00 | 45 | 1015.4 |
| 20260503180029 | 11 | 12 | 12.9 | 24.1 | 0.00 | 0.00 | 0.00 | 44 | 1015.5 |
| 20260503175504 | 11 | 329 | 6.4 | 22.5 | 0.00 | 0.00 | 0.00 | 43 | 1015.6 |
| 20260503175003 | 11 | 212 | 6.4 | 30.6 | 0.00 | 0.00 | 0.00 | 40 | 1015.5 |
| 20260503174514 | 11 | 299 | 9.7 | 30.6 | 0.00 | 0.00 | 0.00 | 39 | 1015.6 |
| 20260503174007 | 11 | 278 | 11.3 | 24.1 | 0.00 | 0.00 | 0.00 | 41 | 1015.6 |
| 20260503173503 | 11 | 304 | 6.4 | 17.7 | 0.00 | 0.00 | 0.00 | 43 | 1015.6 |
| 20260503173032 | 11 | 215 | 6.4 | 25.7 | 0.00 | 0.00 | 0.00 | 43 | 1015.6 |
| 20260503172507 | 11 | 274 | 9.7 | 32.2 | 0.00 | 0.00 | 0.00 | 43 | 1015.7 |
| 20260503172004 | 11 | 336 | 17.7 | 32.2 | 0.00 | 0.00 | 0.00 | 40 | 1015.7 |
| 20260503171516 | 11 | 313 | 14.5 | 24.1 | 0.00 | 0.00 | 0.00 | 41 | 1015.8 |
| 20260503171006 | 11 | 318 | 8.0 | 29.0 | 0.00 | 0.00 | 0.00 | 42 | 1015.8 |
| 20260503170509 | 11 | 304 | 11.3 | 27.4 | 0.00 | 0.00 | 0.00 | 43 | 1016.0 |
| 20260503151011 | 8 | 9 | 14.5 | 24.1 | 0.00 | 0.00 | 0.00 | 44 | 1016.6 |
| 20260503150503 | 8 | 322 | 12.9 | 29.0 | 0.00 | 0.00 | 0.00 | 46 | 1016.6 |
| 20260503131004 | 6 | 347 | 11.3 | 25.7 | 0.00 | 0.00 | 0.00 | 58 | 1016.5 |
| 20260503130507 | 6 | 281 | 11.3 | 38.6 | 0.00 | 0.00 | 0.00 | 59 | 1016.5 |
| 20260503110507 | 2 | 318 | 6.4 | 14.5 | 0.00 | 0.00 | 0.00 | 75 | 1015.7 |
| 20260503090503 | 2 | 257 | 4.8 | 14.5 | 0.00 | 0.00 | 0.00 | 75 | 1013.9 |
| 20260503081519 | 3 | 283 | 6.4 | 16.1 | 0.00 | 0.00 | 0.00 | 73 | 1013.9 |
| 20260503081005 | 3 | 254 | 3.2 | 12.9 | 0.00 | 0.00 | 0.00 | 72 | 1014.0 |
| 20260503080507 | 3 | 302 | 3.2 | 16.1 | 0.00 | 0.00 | 0.00 | 72 | 1013.9 |
| 20260503072510 | 3 | 306 | 3.2 | 12.9 | 0.00 | 0.00 | 0.00 | 71 | 1013.5 |
| 20260503072004 | 3 | 313 | 3.2 | 12.9 | 0.00 | 0.00 | 0.00 | 71 | 1013.5 |
| 20260503071520 | 3 | 317 | 1.6 | 9.7 | 0.00 | 0.00 | 0.00 | 71 | 1013.5 |
| 20260503071007 | 3 | 313 | 1.6 | 9.7 | 0.00 | 0.00 | 0.00 | 71 | 1013.5 |